COSMOS 1275 DEB, 13800

Orbit data source: Space-Track

COSMOS 1275 DEB, 13800 is space debris in LEO originally from a launch on Thu, 04 Jun 1981 UTC launched from the Plesetsk Missile And Space Complex (PKMTR). Debris objects in space refer to the collection of defunct objects orbiting the Earth. Examples of debris include non-operational satellites, rocket bodies, and fragments generated from explosions, collisions, or faulty payload assembly.

Loading next visibility...
Identifier
13800, 1981-053GU
Orbit
LEO
Country
Flag of CISCIS
Related business
Manufacturer
Unknown
Mission
Spacecraft
Bus & Motor
Unknown
Mass
Unknown
Launch date (UTC)
1981-06-04 (44 years ago)
Launch vehicle
Unknown
Launch site
Plesetsk Missile And Space Complex (PKMTR)
Object type
Payload
Rocket body
Debris
Shape & HBR
Unknown shape, 0.1 m
Radar Cross Section
Small (<0.1 m²)

Expand to show TLE details & history
Last TLE update: 5 hours ago

TLE from 5 hours ago
0 COSMOS 1275 DEB
1 13800U 81053GU  25298.52386505  .00002878  00000-0  31695-2 0  9990
2 13800  83.2232 329.2288 0153708 290.6649 237.6830 13.66817724122007
Epoch: 2025-10-25T12:34Z
TLE epoch observation values (Epoch: 2025-10-25T12:34:21.940Z)
Latitude
12.99533°
Longitude
-75.07924°
Altitude
1,075.127 km
Speed
7.285 km/s
True Right ascension
09h 50m 39s
True Declination
12° 55' 24"
Sunlit
Object was in daylight at epoch
Visualization orbit readout
Latitude
Unknown
Longitude
Unknown
Altitude
Unknown
Speed
Unknown
Apparent Right ascension
Unknown
Apparent Declination
Unknown
Sunlit
N/A
Visualization observer readout
Local Sidereal Time
13:04:34
Azimuth
Unknown
Elevation
Unknown
Doppler factor
Unknown
Orbital elements
Apogee altitude
1,121.7 km
Perigee altitude
894.633 km
Semi-major axis
7,386.304 km
Eccentricity
0.01537
Inclination
83.2232°
RAAN
329.2288°
Arg. of periapsis
290.6649°
True anomaly
236.20977°
Mean anomaly
237.683°
Eccentric anomaly
236.94486°
Mean motion
3.41903 °/min
Orbital period
105.29 mins
BSTAR
0.0031695
Loading maneuver chart data...
Computing Atmospheric mass density...

Documentation

Showing up to 5 results
|